Погода в Обанино

Россия / Курганская область     54°50′49″N   64°39′11″E
темп.,
°C
ветер,
м/с
пор.,
м/с
влажн.,
%
обл.,
%
осадки,
мм/ч
давл.,
гПа
погр.,
м
18 августа, чт
чт1823:00+13всв2251100 0.0 102134
02:00+10ссв356187 0.0 102185
05:00+7ссв36754 0.0 1022101
08:00+10ссв466490 0.0 1023400
11:00+14ссв554679 0.0 10231895
14:00+15ссв7643100 0.0 10231824
17:00+14ссв5644100 0.0 10241562
20:00+12ссв374861 0.0 1025274
19 августа, пт
пт1923:00+8ссв35665 0.0 102671
02:00+6ссв35765 0.0 102778
05:00+5с36875 0.0 102994
08:00+9с46725 0.0 1030438
11:00+13с5654100 0.0 10291408
14:00+15с4646100 0.0 10281564
17:00+17ссз674789 0.0 10261641
20:00+15сз366199 0.0 1026158
20 августа, сб
сб2023:00+15зсз4106090 0.0 1024269
02:00+15с4106199 0.0 1023330
05:00+13с3569100 0.0 1024146
08:00+14ссв2369100 0.0 1024201
11:00+17вюв226197 0.0 1025599
14:00+14юв5688100 0.4 1025253
17:00+13ю349588 5.6 1024150
20:00+13ю2395100 0.1 102467
21 августа, вс
вс2123:00+12ю2396100 0.1 102469
02:00+12ю2394100 0.0 102492
05:00+12ююз2294100 0.2 102460
08:00+13з1292100 0.3 1025129
11:00+15ссв468780 0.3 1026600
14:00+16ссв5570100 0.1 10261036
17:00+17ссв5564100 0.1 10261177
20:00+14ссв367137 0.0 1027247
22 августа, пн
пн2223:00+11ссв22845 0.0 102820
02:00+9с338732 0.0 102836
05:00+8с34915 0.0 102962
08:00+13ссв34645 0.0 1030228
11:00+18св34435 0.0 1030988
14:00+21св34365 0.0 10291592
17:00+21св34369 0.0 10291591
20:00+15в225430 0.0 103013